Home   Weather   Cape Dorset   Past weeks

Flag for Canada Past Weather in Cape Dorset, Nunavut, Canada — Yesterday and Last 2 Weeks

16 °F

Light snow. Overcast.

Feels Like: -1 °F
Forecast: N/A
Wind: 18 mph from North

Location: Cape Dorset

Current Time: Oct 28, 2016 at 7:31:53 PM

Latest Report: Oct 28, 2016 at 7:00 PM

Visibility: 3 mi

Pressure: 29.59 "Hg

Humidity: 93%

Dew Point: 14 °F

Location of Cape DorsetLocation

Past Weather in Cape Dorset — Graph


Cape Dorset Temperature Yesterday

Maximum temperature yesterday: 30 °F (at 4:00 AM)
Minimum temperature yesterday: 18 °F (at 9:56 PM)
Average temperature yesterday: 26 °F

High & Low Weather Summary for the Past Weeks

High32 °F (Oct 17, 11:00 AM)100% (Oct 13, 7:00 PM)30.55 "Hg (Oct 13, 7:00 PM)
Low16 °F (Oct 28, 3:00 AM)63% (Oct 16, 3:00 PM)29.56 "Hg (Oct 14, 1:00 AM)
Average24 °F85%30.09 "Hg
* Reported Oct 13 6:04 PM — Oct 28 6:00 PM, Cape Dorset, Weather by CustomWeather, © 2016

Note: Actual official high and low records may vary slightly from our data, if they occured in-between our weather recording intervals... More about our weather records


Cape Dorset Weather History for the Previous 24 Hours

Scroll right to see more
Time TempWeatherWind HumidityBarometerVisibility
6:00 PM
Fri, Oct 28
16 °FLight snow. Overcast.17 mph86%29.62 "Hg5 mi
5:00 PM16 °FLight snow. Overcast.17 mph86%29.64 "Hg3 mi
4:00 PM16 °FLight snow. Overcast.16 mph93%29.65 "Hg3 mi
3:00 PM16 °FLight snow. More clouds than sun.14 mph93%29.67 "Hg2 mi
2:00 PM16 °FLight snow. Overcast.12 mph86%29.69 "Hg2 mi
1:00 PM16 °FLight snow. Overcast.13 mph86%29.72 "Hg2 mi
12:00 PM16 °FLight snow. Overcast.10 mph86%29.74 "Hg5 mi
11:00 AM18 °FLight snow. Overcast.12 mph79%29.76 "Hg15 mi
10:00 AM18 °FLight snow. Overcast.10 mph79%29.79 "Hg15 mi
9:00 AM18 °FLight snow. Overcast.9 mph79%29.81 "Hg5 mi
8:00 AM18 °FLight snow. Overcast.7 mph79%29.83 "Hg15 mi
7:00 AM18 °FPassing clouds.5 mph73%29.83 "Hg15 mi
6:00 AM18 °FOvercast.5 mph79%29.84 "Hg9 mi
5:00 AM18 °FOvercast.No wind79%29.85 "Hg9 mi
4:00 AM18 °FOvercast.5 mph79%29.85 "Hg9 mi
3:00 AM16 °FMostly cloudy.2 mph79%29.86 "Hg9 mi
2:00 AM18 °FOvercast.No wind79%29.87 "Hg9 mi
1:00 AM18 °FOvercast.6 mph79%29.87 "Hg9 mi
12:04 AM19 °FOvercast.3 mph73%29.87 "Hg9 mi
11:00 PM
Thu, Oct 27
19 °FOvercast.10 mph73%29.88 "Hg9 mi
10:00 PM18 °FLight snow. Mostly cloudy.9 mph93%29.88 "Hg2 mi
9:56 PM18 °FLight snow. Mostly cloudy.7 mph93%29.88 "Hg2 mi
9:00 PM19 °FLight snow. Overcast.8 mph86%29.88 "Hg6 mi
8:00 PM19 °FLight snow. Mostly cloudy.8 mph93%29.88 "Hg9 mi
7:04 PM21 °FLight snow. Mostly cloudy.8 mph93%29.88 "Hg3 mi
Weather by CustomWeather, © 2016

See weather overviewHow to use our weather pages